Date String (YYYY-MM-DD hh:mm:ss) UTC,Instrument flags,Ambient pressure (hPa),Sample flow (lpm),Bypass flow (lpm),Sample temperature (°C),Ambient temperature (°C),ASC tube jacket temperature (°C),LED temperature (°C),Box temperature (°C),Sample RH (%),Span deviation,Mass concentration (μg/m³),Mass concentration (μg/m³),Mass concentration (μg/m³)
DateTimeUTC,F1_M11,P_M11,Q1_M11,Q2_M11,T1_M11,T2_M11,T3_M11,T4_M11,T5_M11,U1_M11,ZSPAN_M11,X2_M11,X0_M11,X1_M11
2022-07-01 06:00:00,,0830.9,5.01,0.00,28.9,27.7,00.0,37.9,30.7,27.6,0000.0,0002.68,0008.63,0001.59
2022-07-01 06:01:00,,0830.9,4.99,0.00,28.9,27.7,00.0,37.9,30.7,27.6,0000.0,0002.66,0008.43,0001.59
2022-07-01 06:02:00,,0830.9,5.01,0.00,28.9,27.8,00.0,37.9,30.7,27.7,0000.0,0002.65,0008.86,0001.58
2022-07-01 06:03:00,,0830.9,5.01,0.00,28.9,27.8,00.0,37.9,30.7,27.8,0000.0,0002.61,0008.97,0001.56
2022-07-01 06:04:00,,0830.9,4.99,0.00,28.9,27.8,00.0,37.9,30.7,27.7,0000.0,0002.63,0008.92,0001.55
2022-07-01 06:05:00,,0830.9,5.00,0.00,28.9,27.8,00.0,37.9,30.8,27.7,0000.0,0002.66,0008.35,0001.55
2022-07-01 06:06:00,,0830.9,5.01,0.00,28.9,27.8,00.0,37.9,30.8,27.8,0000.0,0002.71,0008.34,0001.54
2022-07-01 06:07:00,,0830.9,5.00,0.00,28.9,27.8,00.0,37.9,30.7,27.7,0000.0,0002.68,0008.45,0001.54
2022-07-01 06:08:00,,0830.9,5.00,0.00,28.9,27.8,00.0,37.9,30.7,27.7,0000.0,0002.64,0008.75,0001.54
2022-07-01 06:09:00,,0830.9,4.99,0.00,28.9,27.8,00.0,37.9,30.8,27.8,0000.0,0002.61,0008.63,0001.55
2022-07-01 06:10:00,,0830.9,5.00,0.00,28.9,27.8,00.0,37.9,30.8,27.7,0000.0,0002.62,0008.84,0001.56
2022-07-01 06:11:00,,0831.0,5.00,0.00,28.9,27.9,00.0,37.9,30.8,27.7,0000.0,0002.61,0008.39,0001.57
2022-07-01 06:12:00,,0831.0,5.01,0.00,29.0,27.9,00.0,37.9,30.8,27.7,0000.0,0002.68,0008.90,0001.58
2022-07-01 06:13:00,,0831.2,5.01,0.00,29.0,27.9,00.0,37.9,30.8,27.6,0000.0,0002.69,0008.87,0001.58
2022-07-01 06:14:00,,0831.2,4.99,0.00,29.0,27.9,00.0,37.9,30.9,27.4,0000.0,0002.73,0008.60,0001.59
2022-07-01 06:15:00,,0831.2,5.00,0.00,29.0,28.0,00.0,37.9,30.9,27.6,0000.0,0002.75,0008.68,0001.60
2022-07-01 06:16:00,,0831.2,5.00,0.00,29.0,28.0,00.0,37.9,30.9,28.0,0000.0,0002.71,0008.74,0001.60
2022-07-01 06:17:00,,0831.1,5.00,0.00,29.0,28.0,00.0,37.9,30.9,28.2,0000.0,0002.70,0009.01,0001.61
2022-07-01 06:18:00,,0831.2,5.00,0.00,29.0,28.0,00.0,37.9,30.9,28.1,0000.0,0002.75,0008.74,0001.62
2022-07-01 06:19:00,,0831.2,5.01,0.00,29.1,28.1,00.0,37.9,31.0,27.8,0000.0,0002.77,0008.33,0001.62
2022-07-01 06:20:00,,0831.2,5.00,0.00,29.1,28.1,00.0,37.9,31.0,27.6,0000.0,0002.75,0008.29,0001.62
2022-07-01 06:21:00,,0831.2,5.00,0.00,29.1,28.1,00.0,37.9,31.0,27.4,0000.0,0002.71,0007.89,0001.62
2022-07-01 06:22:00,,0831.2,5.00,0.00,29.1,28.1,00.0,38.0,31.0,27.2,0000.0,0002.75,0007.97,0001.60
2022-07-01 06:23:00,,0831.2,4.99,0.00,29.1,28.2,00.0,38.0,31.0,27.1,0000.0,0002.70,0007.99,0001.57
2022-07-01 06:24:00,,0831.2,4.99,0.00,29.1,28.2,00.0,38.0,31.0,27.1,0000.0,0002.69,0007.89,0001.58
2022-07-01 06:25:00,,0831.1,5.00,0.00,29.2,28.2,00.0,38.0,31.1,27.1,0000.0,0002.71,0007.90,0001.60
2022-07-01 06:26:00,,0831.2,5.00,0.00,29.2,28.2,00.0,38.0,31.0,27.1,0000.0,0002.71,0008.40,0001.60
2022-07-01 06:27:00,,0831.2,5.01,0.00,29.2,28.2,00.0,38.0,31.1,27.0,0000.0,0002.71,0008.48,0001.60
2022-07-01 06:28:00,,0831.1,5.01,0.00,29.2,28.2,00.0,38.0,31.1,26.8,0000.0,0002.65,0008.03,0001.58
2022-07-01 06:29:00,,0831.2,5.00,0.00,29.2,28.2,00.0,38.0,31.1,26.8,0000.0,0002.64,0007.82,0001.57
2022-07-01 06:30:00,,0831.2,4.99,0.00,29.2,28.3,00.0,38.0,31.1,26.7,0000.0,0002.62,0007.81,0001.55
2022-07-01 06:31:00,,0831.1,4.99,0.00,29.2,28.3,00.0,38.0,31.1,26.6,0000.0,0002.60,0007.62,0001.52
2022-07-01 06:32:00,,0831.1,5.00,0.00,29.2,28.3,00.0,38.0,31.1,26.5,0000.0,0002.61,0007.54,0001.50
2022-07-01 06:33:00,,0831.2,5.00,0.00,29.2,28.3,00.0,38.0,31.1,26.5,0000.0,0002.58,0007.51,0001.49
2022-07-01 06:34:00,,0831.2,5.01,0.00,29.3,28.3,00.0,38.1,31.1,26.5,0000.0,0002.51,0006.61,0001.49
2022-07-01 06:35:00,,0831.2,5.00,0.00,29.3,28.3,00.0,38.1,31.2,26.6,0000.0,0002.50,0006.29,0001.46
2022-07-01 06:36:00,,0831.2,5.00,0.00,29.3,28.3,00.0,38.1,31.2,26.6,0000.0,0002.47,0007.14,0001.42
2022-07-01 06:37:00,,0831.2,5.00,0.00,29.3,28.4,00.0,38.1,31.2,26.6,0000.0,0002.44,0007.07,0001.39
2022-07-01 06:38:00,,0831.2,5.00,0.00,29.3,28.4,00.0,38.1,31.2,26.6,0000.0,0002.45,0007.04,0001.37
2022-07-01 06:39:00,,0831.2,4.99,0.00,29.3,28.4,00.0,38.1,31.2,26.8,0000.0,0002.40,0007.20,0001.35
2022-07-01 06:40:00,,0831.2,5.00,0.00,29.3,28.4,00.0,38.1,31.2,26.8,0000.0,0002.35,0007.14,0001.33
2022-07-01 06:41:00,,0831.2,5.01,0.00,29.3,28.4,00.0,38.1,31.2,26.8,0000.0,0002.35,0007.09,0001.33
2022-07-01 06:42:00,,0831.2,5.00,0.00,29.4,28.4,00.0,38.2,31.2,26.7,0000.0,0002.36,0007.08,0001.34
2022-07-01 06:43:00,,0831.2,5.00,0.00,29.4,28.4,00.0,38.2,31.3,26.7,0000.0,0002.34,0007.19,0001.32
2022-07-01 06:44:00,,0831.2,5.00,0.00,29.4,28.5,00.0,38.2,31.3,26.7,0000.0,0002.30,0007.36,0001.32
2022-07-01 06:45:00,,0831.2,5.00,0.00,29.4,28.5,00.0,38.2,31.3,26.7,0000.0,0002.32,0007.40,0001.31
2022-07-01 06:46:00,,0831.1,5.01,0.00,29.4,28.5,00.0,38.2,31.3,26.7,0000.0,0002.27,0007.75,0001.32
2022-07-01 06:47:00,,0831.2,5.01,0.00,29.4,28.5,00.0,38.2,31.3,26.7,0000.0,0002.23,0007.31,0001.33
2022-07-01 06:48:00,,0831.3,4.99,0.00,29.4,28.5,00.0,38.2,31.3,26.7,0000.0,0002.26,0006.78,0001.34
2022-07-01 06:49:00,,0831.4,5.01,0.00,29.4,28.5,00.0,38.2,31.3,26.7,0000.0,0002.27,0006.82,0001.34
2022-07-01 06:50:00,,0831.5,4.98,0.00,29.4,28.5,00.0,38.2,31.3,26.7,0000.0,0002.30,0007.52,0001.35
2022-07-01 06:51:00,,0831.6,5.00,0.00,29.5,28.5,00.0,38.3,31.3,26.7,0000.0,0002.35,0007.88,0001.35
2022-07-01 06:52:00,,0831.7,5.00,0.00,29.5,28.6,00.0,38.3,31.4,26.7,0000.0,0002.38,0007.96,0001.36
2022-07-01 06:53:00,,0831.7,4.99,0.00,29.5,28.6,00.0,38.3,31.4,26.7,0000.0,0002.40,0008.23,0001.35
2022-07-01 06:54:00,,0831.7,5.01,0.00,29.5,28.6,00.0,38.3,31.4,26.6,0000.0,0002.42,0008.48,0001.36
2022-07-01 06:55:00,,0831.7,5.00,0.00,29.5,28.6,00.0,38.3,31.4,26.6,0000.0,0002.46,0008.78,0001.38
2022-07-01 06:56:00,,0831.8,5.00,0.00,29.5,28.6,00.0,38.3,31.5,26.5,0000.0,0002.51,0009.37,0001.39
2022-07-01 06:57:00,,0831.7,5.00,0.00,29.6,28.7,00.0,38.3,31.5,26.5,0000.0,0002.55,0009.77,0001.39
2022-07-01 06:58:00,,0831.8,4.99,0.00,29.6,28.7,00.0,38.3,31.5,26.4,0000.0,0002.58,0009.56,0001.40
2022-07-01 06:59:00,,0831.7,5.01,0.00,29.6,28.7,00.0,38.4,31.5,26.4,0000.0,0002.52,0009.47,0001.41
